Westerly, RI

5:30 PM EDT on August 23, 2016 (GMT -0400)
Westerly State

Weather History for KWST - November, 2013

Change the Weather History Date:

Friday, November 1, 2013

  Actual Average (KGON) Record (KGON)
Temperature  
Mean Temperature 63 °F -  
Max Temperature 66 °F 58 °F 75 °F (1982)
Min Temperature 60 °F 39 °F 26 °F (1968)
Degree Days  
Heating Degree Days 2    
Growing Degree Days 13 (Base 50)    
Moisture  
Dew Point 59 °F    
Average Humidity 87    
Maximum Humidity 94    
Minimum Humidity 75    
Precipitation  
Precipitation 0.03 in - - ()
Sea Level Pressure  
Sea Level Pressure 29.67 in    
Wind  
Wind Speed 16 mph (SSW)    
Max Wind Speed 25 mph    
Max Gust Speed 40 mph    
Visibility 8 miles    
Events Rain    
Averages and records for this station are not official NWS values.
T = Trace of Precipitation, MM = Missing Value Source: NWS Daily Summary

Daily Weather History Graph

Daily Weather History Graph

Search for Another Location

Airport or City:

Trip Planner

Search our weather history database for the weather conditions in past years. The results will help you decide how hot, cold, wet, or windy it might be!

Date:

Astronomy

Nov. 01, 2013 Rise Set
Actual Time 7:18 AM EDT 5:42 PM EDT
Civil Twilight 6:50 AM EDT 6:10 PM EDT
Nautical Twilight 6:17 AM EDT 6:43 PM EDT
Astronomical Twilight 5:45 AM EDT 7:15 PM EDT
Moon 5:06 AM EDT (11/1) 4:34 PM EDT (11/1)
Length of Visible Light 11h 20m
Length of Day
10h 23m
Waning Crescent, 4% of the Moon is Illuminated
Nov 1
Waning Crescent
Nov 3
New
Nov 10
First Quarter
Nov 17
Full
Nov 25
Last Quarter

Hourly Weather History & Observations

Time (EDT) Temp. Dew Point Humidity Pressure Visibility Wind Dir Wind Speed Gust Speed Precip Events Conditions
12:24 AM 64.4 °F 60.8 °F 88% 29.84 in 9.0 mi SSW 17.3 mph 25.3 mph 0.00 in Rain Light Rain
12:53 AM 64.0 °F 61.0 °F 90% 29.84 in 8.0 mi SSW 19.6 mph 31.1 mph 0.00 in Rain Light Rain
1:53 AM 63.0 °F 61.0 °F 93% 29.81 in 7.0 mi SSW 10.4 mph 19.6 mph 0.01 in Rain Light Rain
2:30 AM 62.6 °F 60.8 °F 94% 29.79 in 7.0 mi SSW 13.8 mph 21.9 mph 0.00 in   Overcast
2:53 AM 63.0 °F 61.0 °F 93% 29.77 in 7.0 mi SSW 16.1 mph 24.2 mph 0.00 in   Overcast
3:29 AM 62.6 °F 60.8 °F 94% 29.75 in 7.0 mi SSW 16.1 mph 24.2 mph N/A   Mostly Cloudy
3:53 AM 63.0 °F 61.0 °F 93% 29.74 in 7.0 mi SSW 16.1 mph 24.2 mph N/A   Mostly Cloudy
4:53 AM 63.0 °F 60.1 °F 90% 29.72 in 7.0 mi SSW 19.6 mph 25.3 mph N/A   Mostly Cloudy
5:53 AM 64.0 °F 61.0 °F 90% 29.71 in 8.0 mi SSW 17.3 mph 26.5 mph N/A   Overcast
6:53 AM 64.0 °F 61.0 °F 90% 29.69 in 7.0 mi SSW 18.4 mph 26.5 mph N/A   Mostly Cloudy
7:53 AM 64.9 °F 61.0 °F 87% 29.68 in 6.0 mi SSW 16.1 mph 29.9 mph N/A   Overcast
8:53 AM 64.9 °F 61.0 °F 87% 29.67 in 5.0 mi SSW 17.3 mph 25.3 mph 0.00 in   Overcast
9:04 AM 64.4 °F 62.6 °F 94% 29.67 in 5.0 mi SSW 18.4 mph 26.5 mph N/A   Overcast
9:53 AM 66.0 °F 63.0 °F 90% 29.64 in 5.0 mi SSW 19.6 mph 32.2 mph N/A   Overcast
10:06 AM 66.2 °F 62.6 °F 88% 29.64 in 5.0 mi SSW 25.3 mph 33.4 mph N/A   Mostly Cloudy
10:53 AM 66.0 °F 62.1 °F 87% 29.61 in 6.0 mi SSW 19.6 mph 33.4 mph N/A   Mostly Cloudy
11:53 AM 66.0 °F 61.0 °F 84% 29.61 in 5.0 mi SSW 23.0 mph 40.3 mph 0.00 in Rain Light Rain
12:02 PM 64.4 °F 62.6 °F 94% 29.61 in 2.0 mi SSW 23.0 mph 32.2 mph 0.01 in Rain Rain
12:27 PM 64.4 °F 59.0 °F 83% 29.63 in 8.0 mi SW 13.8 mph 28.8 mph 0.02 in Rain Light Rain
12:53 PM 63.0 °F 59.0 °F 87% 29.62 in 8.0 mi SW 10.4 mph 18.4 mph 0.02 in   Overcast
1:53 PM 64.0 °F 55.9 °F 75% 29.59 in 10.0 mi SW 12.7 mph 18.4 mph N/A   Overcast
2:53 PM 63.0 °F 57.0 °F 81% 29.59 in 7.0 mi SSW 11.5 mph 20.7 mph 0.00 in Rain Light Rain
3:53 PM 62.1 °F 57.0 °F 84% 29.56 in 10.0 mi SSW 12.7 mph 20.7 mph 0.00 in   Overcast
4:53 PM 61.0 °F 57.0 °F 87% 29.58 in 10.0 mi SSW 11.5 mph 23.0 mph N/A   Mostly Cloudy
5:53 PM 61.0 °F 55.9 °F 83% 29.60 in 10.0 mi SSW 11.5 mph 20.7 mph N/A   Partly Cloudy
6:53 PM 62.1 °F 55.9 °F 80% 29.62 in 10.0 mi SW 11.5 mph - N/A   Clear
7:53 PM 61.0 °F 55.9 °F 83% 29.64 in 10.0 mi WSW 8.1 mph 17.3 mph N/A   Clear
8:53 PM 61.0 °F 55.9 °F 83% 29.65 in 10.0 mi WSW 6.9 mph - N/A   Clear
9:53 PM 61.0 °F 55.0 °F 81% 29.68 in 10.0 mi SW 6.9 mph - N/A   Clear
10:53 PM 60.1 °F 55.9 °F 86% 29.68 in 10.0 mi SW 5.8 mph - N/A   Clear
11:53 PM 61.0 °F 55.0 °F 81% 29.67 in 10.0 mi WSW 5.8 mph - N/A   Clear